Regional Weather Roundup
Issued by NWS Burlington, VT

Home | Current Version | Previous Version | Text Only | Print | Product List | Glossary On
Versions: 1 2 3 4 5 6 7 8 9 10 11 12 13 14 15 16 17 18 19 20 21 22 23 24 25 26 27 28 29 30 31 32 33 34 35 36 37 38 39 40 41 42 43 44 45 46 47 48 49 50
000
ASUS41 KBTV 252130
RWRBTV
VERMONT REGIONAL WEATHER ROUNDUP
NATIONAL WEATHER SERVICE BURLINGTON VT
500 PM EDT THU AUG 25 2016

NOTE: "FAIR" INDICATES FEW OR NO CLOUDS BELOW 12,000 FEET WITH NO
SIGNIFICANT WEATHER AND/OR OBSTRUCTIONS TO VISIBILITY.

* THESE REPORTS ARE NOT UNDER NWS QUALITY CONTROL AND/OR DO NOT
  REPORT WEATHER SUCH AS PRECIPITATION AND FOG.

VTZ001>019-252200-
_____VERMONT_____


CITY           SKY/WX    TMP DP  RH WIND       PRES   REMARKS
BURLINGTON     MOSUNNY   81  67  62 S13G24    29.90S
MONTPELIER     MOSUNNY   76  66  71 SW12G17   29.99S
MORRISVILLE    CLOUDY    77  66  68 SW12      29.94R
ST. JOHNSBURY*   N/A     77  66  68 MISG      29.92S
LYNDONVILLE*   CLOUDY    75  68  78 S7        29.97R
MIDDLEBURY*    CLOUDY    76  68  77 S8        29.95S
RUTLAND*       CLOUDY    76  69  79 S12       29.98S
SPRINGFIELD    CLOUDY    74  71  91 CALM      29.98S
HIGHGATE*      FAIR      80  70  72 S6        29.87F
NEWPORT*       CLOUDY    74  67  77 S6        29.93S
BENNINGTON     CLOUDY    73  70  90 CALM      29.99F FOG
SUTTON*          N/A     73 N/A N/A MISG        N/A
GALLUP MILLS*    N/A     73 N/A N/A MISG        N/A
UNION VILLAGE*   N/A     75 N/A N/A MISG        N/A
MT. MANSFIELD*   N/A     64 N/A N/A NW30        N/A

_____LAKE CHAMPLAIN_____


CITY           SKY/WX    TMP DP  RH WIND       PRES   REMARKS
BURTON ISLAND*   N/A     77  70  78 S12         N/A
COLCHESTER RF*   N/A     77  70  78 S21         N/A
DIAMOND ISL*     N/A     79  70  73 S20         N/A

$$

NYZ007-026>031-035-052-083-087-252200-
_____NORTHERN NEW YORK_____


CITY           SKY/WX    TMP DP  RH WIND       PRES   REMARKS
PLATTSBURGH    MOSUNNY   83  70  64 S3        29.87S
SARANAC LAKE   PTSUNNY   75  65  70 SW10      29.96R
MASSENA        CLOUDY    82  70  66 SW15G22   29.86F
OGDENSBURG*    PTSUNNY   81  72  74 SW8       29.87S
POTSDAM*       MOSUNNY   81  73  78 SW12G20   29.89S
STARK FALLS*     N/A    120 N/A N/A SW10        N/A
WATERTOWN      CLOUDY    79  71  76 SW8       29.91S
FT DRUM        CLOUDY    79  71  75 SW10      29.91F
ALBANY         CLOUDY    76  72  87 SE3       29.96F
GLENS FALLS    CLOUDY    74  69  85 S6        29.96S

$$
NHZ002-005-011-252200-
_____NEW HAMPSHIRE_____


CITY           SKY/WX    TMP DP  RH WIND       PRES   REMARKS
LEBANON        CLOUDY    78  68  71 SW6       29.96S
KEENE          PTSUNNY   79  69  71 S7        29.97F
MT WASHINGTON  FOG       55  55 100 W48G55      N/A  VSB 0
PLYMOUTH       CLOUDY    79  67  66 CALM      29.95F
WHITEFIELD     CLOUDY    77  67  71 VRB7      29.96R

$$

_____REGIONAL QUEBEC LOCATIONS_____


CITY           SKY/WX    TMP DP  RH WIND       PRES   REMARKS
MONTREAL       PTSUNNY   79  72  78 SW8G20    29.85S
QUEBEC CITY    PTSUNNY   77  70  78 SW14      29.83R
SHERBROOKE     LGT RAIN  72  70  94 W5        29.91R FOG

_____REGIONAL ONTARIO LOCATIONS_____


CITY           SKY/WX    TMP DP  RH WIND       PRES   REMARKS
OTTAWA         PTSUNNY   84  72  65 S14       29.83S

______KEY______
VSB  - VISIBILITY IN MILES
WCI  - WIND CHILL INDEX
HX   - HEAT INDEX
$$
NNNN




USA.gov is the U.S. government's official web portal to all federal, state and local government web resources and services.